CST,Max TemperatureF,Mean TemperatureF,Min TemperatureF,Max Dew PointF,MeanDew PointF,Min DewpointF,Max Humidity, Mean Humidity, Min Humidity, Max Sea Level PressureIn, Mean Sea Level PressureIn, Min Sea Level PressureIn, Max VisibilityMiles, Mean VisibilityMiles, Min VisibilityMiles, Max Wind SpeedMPH, Mean Wind SpeedMPH, Max Gust SpeedMPH,PrecipitationIn, CloudCover, Events, WindDirDegrees
2013-2-1,30,15,0,22,9,-6,83,71,64,30.41,30.19,30.04,10,10,10,20,8,25,0.00,6,,188
2013-2-2,42,34,26,32,26,20,86,77,67,30.19,30.11,30.04,10,10,5,21,8,37,0.00,5,Rain-Snow,318
2013-2-3,44,32,21,32,26,16,87,70,52,30.21,30.03,29.77,10,10,10,20,11,28,0.00,0,,234
2013-2-4,39,32,24,31,24,21,90,83,69,30.03,29.93,29.76,10,10,7,24,11,30,0.00,7,,320
2013-2-5,50,38,25,32,28,24,94,69,41,30.06,29.95,29.81,10,10,7,18,8,24,0.00,2,,293
2013-2-6,55,42,30,40,33,27,89,76,56,30.06,29.92,29.82,10,10,10,17,7,22,0.00,3,,151
2013-2-7,39,35,30,35,29,26,92,86,81,30.25,30.08,29.88,10,8,4,22,12,28,0.00,6,,347
2013-2-8,32,29,26,28,26,23,92,86,80,30.32,30.23,30.12,10,7,3,15,8,20,0.00,5,,125
2013-2-9,51,40,28,38,33,26,93,80,59,30.12,29.90,29.65,10,7,3,23,17,28,0.00,5,Rain,148
2013-2-10,43,38,32,41,32,24,96,84,71,29.82,29.46,29.26,10,8,2,31,18,43,0.02,8,Rain-Snow,217
2013-2-11,37,30,23,26,23,21,90,74,58,30.15,30.06,29.83,10,10,10,31,17,38,0.00,4,,305
2013-2-12,49,34,20,26,22,18,93,67,31,30.14,30.00,29.90,10,10,10,15,5,23,0.00,0,,244
2013-2-13,54,40,27,31,27,23,86,63,35,29.90,29.81,29.72,10,10,10,16,7,21,0.01,1,,254
2013-2-14,44,32,19,32,26,13,96,69,41,30.29,30.02,29.80,10,9,0,26,15,36,0.03,4,Snow,308
2013-2-15,32,22,12,27,17,9,91,78,51,30.36,30.32,30.27,10,9,0,17,8,21,0.01,5,Snow,313
2013-2-16,35,22,8,28,19,6,91,81,64,30.33,30.13,29.99,10,10,10,16,7,,0.00,5,,181
2013-2-17,51,36,20,38,28,18,93,78,57,29.99,29.78,29.54,10,10,7,20,9,23,0.00,0,,140
2013-2-18,37,29,21,32,25,17,91,77,57,30.08,29.79,29.54,10,10,1,30,13,40,0.00,4,Snow,336
2013-2-19,27,18,10,19,5,0,77,61,31,30.37,30.26,30.09,10,10,10,23,15,32,0.00,1,,334
2013-2-20,25,16,6,16,6,0,79,64,47,30.38,30.29,30.19,10,10,2,14,9,,0.00,4,Snow,84
2013-2-21,25,23,21,20,15,9,91,73,54,30.23,30.00,29.85,10,6,0,21,14,28,0.00,8,Snow,59
2013-2-22,24,17,10,18,13,7,90,80,66,30.02,29.95,29.85,10,9,2,17,12,20,0.00,3,Snow,309
2013-2-23,34,16,-2,25,11,-7,94,81,63,29.99,29.89,29.81,10,8,3,12,4,,0.00,0,Snow,174
2013-2-24,37,26,15,30,24,13,94,85,68,30.07,29.97,29.87,10,5,0,15,5,,0.00,6,Fog,80
2013-2-25,34,30,25,28,25,23,93,85,77,30.08,30.02,29.91,7,4,3,17,11,,0.00,6,,3
2013-2-26,31,28,24,27,25,23,95,91,84,29.93,29.86,29.80,5,3,1,21,15,25,0.00,8,Snow,349
2013-2-27,38,32,25,28,25,21,90,77,59,30.10,29.99,29.91,10,8,4,30,17,39,0.00,3,,329
2013-2-28,32,29,26,26,24,20,86,81,75,30.24,30.19,30.11,10,10,10,26,19,32,0.00,8,,342